Temperature
14 14 14 14 14 14 14 14 15 15 15 15 15 15 16 16 17 17 17 17 17 17 17 17 17 17 17 17 17 17 17 18 18 18 18 18 18 18 18 18 18 18 18
14 14 14 14 14 14 14 14 14 14 15 15 15 15 16 16 16 16 17 17 17 17 17 17 17 17 17 17 17 17 17 17 18 18 18 18 18 18 17 18 18 18 17
14 14 14 14 14 14 14 14 14 14 14 15 15 15 15 16 16 16 16 17 17 17 17 17 17 17 17 17 17 17 17 17 17 17 18 18 18 18 17 17 17 17 17
13 13 13 13 14 14 14 14 14 14 14 14 15 15 15 15 16 16 16 16 17 17 17 17 17 17 17 17 17 17 17 17 17 17 17 17 17 17 17 17 17 17 17
13 13 13 13 13 13 14 14 14 14 14 14 14 15 15 15 15 16 16 16 16 16 16 17 17 17 17 17 17 17 17 17 17 17 17 17 17 17 17 17 17 17 17
13 13 13 13 13 13 13 14 14 14 14 14 14 15 15 15 15 16 16 16 16 16 16 17 17 17 17 17 17 17 17 17 17 17 17 17 17 17 17 17 17 17 17
13 13 13 13 13 13 13 13 13 14 14 14 14 14 15 15 15 15 15 16 16 16 16 16 17 17 17 17 17 17 17 17 17 17 17 17 17 17 17 17 17 17 17
13 13 12 12 13 13 13 13 13 13 14 14 14 14 14 15 15 15 15 15 16 16 16 16 16 17 17 17 17 17 17 17 17 17 17 17 17 17 17 17 17 17 17
13 12 12 12 12 13 13 13 13 13 13 14 14 14 14 15 15 15 15 15 15 16 16 16 16 16 17 16 16 17 17 17 17 17 17 17 17 17 17 17 17 17 17
13 13 12 12 12 12 13 13 13 13 13 13 14 14 14 14 15 15 15 15 15 16 16 16 16 16 16 16 16 16 16 16 16 16 17 17 17 17 17 17 17 17 17
13 13 12 12 12 12 12 13 13 13 13 13 13 14 14 14 14 15 14 15 15 15 15 16 16 16 16 16 16 16 16 16 16 16 16 16 17 17 17 17 17 17 17
13 13 12 12 12 12 12 12 13 13 13 13 13 14 14 14 15 15 15 14 15 15 15 15 16 16 16 16 16 16 16 16 16 16 16 16 16 16 16 16 16 17 16
13 13 13 12 12 12 12 12 12 13 13 13 13 13 14 14 14 15 15 14 14 14 14 15 15 15 15 16 16 16 16 16 16 16 16 16 16 16 16 16 16 16 16
13 13 13 13 12 12 12 12 12 12 13 13 13 13 13 14 14 14 14 14 14 14 14 14 14 15 15 15 15 15 16 16 16 16 16 16 16 16 16 16 16 16 16
13 13 13 13 13 13 13 13 13 13 12 13 13 13 13 13 13 14 14 14 14 14 14 14 14 14 15 15 15 15 15 15 15 16 16 16 16 16 16 16 16 16 16
14 13 13 13 13 13 13 13 13 13 13 12 12 13 13 13 13 13 13 14 14 14 14 14 14 14 14 14 15 15 15 15 15 15 15 15 15 15 16 16 16 16 16
14 13 13 13 13 13 13 13 13 13 13 13 12 13 13 13 13 13 13 13 14 14 14 14 14 14 14 14 14 14 14 15 15 15 15 15 15 15 15 15 15 15 16
14 14 13 13 13 13 13 13 13 13 13 13 13 13 13 13 13 13 13 13 13 13 14 14 13 14 14 14 14 14 14 14 14 14 14 15 15 15 15 15 15 15 15
14 14 14 14 14 13 13 13 13 13 13 13 13 13 13 13 13 13 13 13 13 13 13 13 13 13 13 13 13 13 13 14 14 14 14 14 14 14 14 14 14 15 15
14 14 14 14 14 14 13 13 13 13 13 13 13 13 13 12 12 13 13 13 13 13 13 13 13 13 13 13 13 13 13 13 13 13 13 13 14 14 14 14 14 14 14
14 14 14 14 14 14 14 13 13 13 13 13 13 13 13 13 13 12 12 12 12 12 12 12 12 12 12 12 13 13 13 13 13 13 13 13 13 13 13 13 14 14 14
15 14 14 14 14 14 14 14 13 13 13 13 13 13 13 13 13 13 12 12 12 12 12 12 12 12 12 12 12 12 12 13 13 13 13 13 13 13 13 13 13 13 13
15 15 15 14 14 14 14 14 14 13 13 13 13 13 13 13 13 12 12 12 12 12 12 12 12 12 12 12 12 12 12 12 12 12 12 13 13 13 13 13 13 13 13
15 15 15 15 14 14 14 14 14 13 13 13 13 13 13 13 13 12 12 12 12 12 12 12 12 12 12 12 12 12 12 12 12 12 12 12 12 12 12 12 12 12 12
15 15 15 15 15 15 14 14 14 13 13 13 13 13 13 13 13 12 12 12 12 12 12 12 12 12 12 12 12 12 12 11 11 11 12 12 12 12 12 12 11 11 11
15 15 15 15 15 15 14 14 14 13 13 13 13 13 13 13 12 12 12 12 12 12 12 12 12 12 11 11 11 11 11 11 11 11 11 11 11 11 11 11 11 11 11
Wind_Speed
2 2 2 3 3 3 2 2 2 2 2 2 2 2 3 3 3 3 3 4 5 6 7 8 9 9 9 9 9 10 11 10 10 10 10 10 9 9 10 10 11 11 12
1 2 2 3 3 4 3 2 2 2 2 2 2 2 2 2 3 3 3 3 4 4 5 6 7 9 9 9 10 10 10 10 11 11 10 10 10 10 10 11 11 11 11
2 2 2 3 3 4 3 2 2 1 1 1 2 2 2 2 2 3 2 2 2 3 3 4 5 6 7 8 9 10 10 11 12 12 11 11 11 11 11 11 11 11 11
3 2 2 3 4 4 2 1 1 1 1 1 1 1 1 1 2 2 1 1 1 1 1 2 3 5 6 7 7 8 10 11 11 12 11 11 11 12 12 12 12 11 11
4 2 2 3 4 3 2 2 1 0 1 1 1 0 1 1 1 0 0 0 1 1 0 1 2 3 5 6 6 7 9 10 11 11 11 11 12 12 12 12 12 11 11
4 3 2 3 4 3 3 3 1 1 0 1 1 2 1 1 1 1 1 0 0 1 1 1 2 3 4 5 5 6 8 9 11 11 11 11 12 12 13 12 12 12 12
4 3 2 3 4 3 3 3 1 1 1 1 2 2 2 2 1 1 1 1 0 1 1 1 2 2 3 4 4 5 6 8 10 11 11 11 12 12 12 12 12 12 12
4 2 3 3 3 3 4 4 2 1 1 1 2 2 1 2 2 2 1 1 1 1 0 1 2 2 2 3 3 5 6 7 9 10 11 11 11 11 12 12 13 13 13
3 3 3 2 3 3 3 3 2 1 0 1 1 2 2 2 1 2 2 2 1 1 1 0 1 2 3 3 3 4 5 6 7 9 10 11 12 12 12 12 13 13 13
2 2 2 3 3 2 3 3 2 1 1 1 1 1 1 2 2 1 2 2 2 2 2 1 1 1 1 2 3 4 4 5 6 7 8 10 11 12 12 12 12 12 13
2 2 2 2 3 3 3 3 3 2 1 1 0 0 1 2 1 2 1 1 2 2 2 2 2 2 2 2 2 3 4 5 5 5 5 8 10 11 11 11 12 12 13
3 2 1 2 2 2 3 2 2 2 2 1 1 1 1 1 1 2 2 1 1 2 3 3 2 2 3 3 3 3 5 5 6 5 4 4 6 8 9 10 11 12 12
2 3 1 1 2 2 2 2 2 2 2 2 1 1 1 0 1 2 2 2 2 1 2 2 2 2 3 3 3 4 4 4 5 4 4 4 5 6 7 7 8 9 10
4 2 2 2 2 2 2 2 2 2 2 2 2 2 2 2 1 1 2 3 2 2 3 2 2 2 3 3 3 4 3 3 3 4 4 4 4 5 5 5 6 6 7
3 3 2 2 2 1 1 1 2 2 2 2 2 2 2 2 2 2 1 2 3 2 0 2 2 3 3 3 4 3 3 2 3 3 3 2 3 3 4 4 5 5 6
3 2 2 2 1 1 1 1 1 1 2 2 1 3 3 2 2 2 2 1 2 3 2 0 1 2 2 2 4 4 3 3 3 3 3 2 2 2 2 2 3 4 5
4 4 4 3 2 2 1 0 0 0 1 2 2 2 2 2 2 2 2 2 2 2 3 0 1 2 2 3 3 5 5 4 3 3 2 2 2 1 1 1 2 3 4
4 4 4 3 3 3 2 2 2 1 1 0 0 0 1 1 2 2 2 2 2 1 3 2 1 3 3 2 2 3 3 4 4 4 4 3 2 2 1 0 1 2 3
5 4 4 5 4 4 3 3 3 2 2 2 2 1 1 1 1 1 1 1 1 2 2 3 1 2 2 2 3 3 3 3 4 5 6 5 4 3 2 1 1 2 3
6 6 5 5 5 4 4 4 4 3 3 2 2 2 2 3 3 2 1 1 2 2 3 3 2 1 2 2 2 2 3 3 3 4 5 5 5 5 4 3 2 2 3
7 6 5 5 5 5 5 6 5 4 4 3 3 3 3 4 5 4 3 3 3 3 2 2 1 1 0 1 1 1 1 2 2 2 2 3 3 3 4 5 4 4 3
6 6 6 6 6 6 8 10 8 5 5 5 4 4 4 4 5 5 5 5 5 4 4 3 2 2 2 2 1 1 1 1 1 2 2 2 2 2 3 4 5 5 5
7 7 7 7 7 8 10 10 11 7 6 6 5 4 3 3 4 3 3 3 4 4 6 5 4 4 3 4 3 2 1 1 1 1 1 2 2 2 3 4 5 5 5
7 8 8 8 8 9 11 11 11 7 6 6 6 6 5 5 5 5 4 3 2 2 3 4 4 4 3 3 4 3 3 2 1 1 1 0 2 2 2 4 4 6 7
8 8 6 8 9 9 11 12 10 5 5 6 6 6 6 6 8 8 6 4 3 2 3 4 5 4 3 4 5 4 3 2 0 1 0 1 1 2 2 2 3 6 7
9 8 8 8 9 9 11 13 12 6 6 5 5 5 9 9 9 10 7 6 6 4 2 2 2 1 1 2 4 3 4 3 2 1 1 1 0 1 2 2 2 4 6
Wind_Direction
14 355 346 345 341 337 328 315 306 304 293 273 246 229 238 247 256 261 271 291 281 259 235 223 218 211 206 204 202 198 188 183 181 175 172 168 164 156 149 144 138 136 134
40 1 352 344 341 336 319 300 291 284 279 269 264 252 249 253 249 247 259 278 285 267 240 227 222 214 208 207 207 200 192 188 183 180 176 173 170 165 159 155 149 145 143
40 23 356 341 330 331 326 317 310 301 286 276 269 265 251 241 236 240 243 250 277 263 239 232 227 216 211 211 206 200 196 193 186 183 179 178 176 173 168 164 160 157 152
33 31 3 341 335 338 337 321 312 310 313 311 293 280 261 253 245 239 221 215 220 231 227 234 229 216 212 214 208 202 197 195 189 184 182 182 180 177 173 169 167 164 162
28 34 2 340 346 349 348 333 349 278 284 307 279 268 316 294 282 267 27 191 184 156 182 214 218 209 203 205 207 205 199 194 191 188 186 185 184 180 177 175 174 171 169
18 23 8 357 2 5 358 354 345 347 305 301 23 60 25 344 358 19 350 360 217 121 170 168 176 198 203 201 203 207 201 194 190 192 190 186 185 183 181 179 177 176 176
11 20 10 3 8 9 347 343 350 8 5 11 66 39 13 15 30 19 17 20 45 80 103 142 150 166 183 192 190 198 202 199 195 193 192 187 186 184 181 182 182 182 183
4 13 18 3 0 360 359 3 11 5 5 33 91 94 32 3 359 19 31 39 14 51 82 128 143 159 163 161 182 189 194 199 197 195 195 189 187 188 188 188 189 188 188
0 12 5 359 358 6 350 345 2 34 359 359 51 127 142 204 324 5 17 18 20 29 11 42 128 158 165 166 178 184 184 190 194 197 199 195 192 192 194 195 196 195 195
346 358 358 354 357 0 352 337 14 13 82 46 5 38 107 153 129 64 2 0 21 32 18 19 44 76 136 155 175 182 181 182 187 194 199 199 199 199 199 202 203 203 202
330 335 347 352 352 351 351 357 6 23 49 88 68 52 61 57 83 134 113 357 17 19 15 20 44 48 64 102 144 168 171 169 177 184 194 200 202 202 201 205 207 208 209
314 319 335 349 338 335 341 349 5 26 33 59 58 63 106 118 136 123 127 94 50 11 14 31 42 40 56 72 95 130 149 157 166 168 173 186 200 205 206 208 210 213 215
282 291 317 317 315 319 329 354 23 25 27 49 51 39 39 57 151 132 123 122 83 24 23 28 20 31 58 66 68 94 119 142 153 166 179 193 206 204 209 215 216 221 223
252 268 273 282 304 323 346 14 34 27 40 39 44 45 39 21 40 107 141 138 105 46 35 7 356 17 37 56 58 74 90 123 146 162 175 194 201 197 199 210 219 227 231
249 248 244 262 297 321 343 29 32 27 41 40 35 44 43 22 31 42 96 135 138 129 93 337 360 356 15 55 62 72 75 99 121 142 158 174 182 192 200 213 225 228 232
243 237 236 239 260 290 320 55 32 14 49 34 35 51 43 26 30 39 62 83 118 139 147 262 347 338 358 47 58 66 63 77 93 114 125 134 161 178 192 219 239 235 234
230 228 225 224 227 234 233 188 213 61 60 27 29 53 37 40 49 43 58 76 86 117 131 69 6 360 27 41 37 52 56 55 55 77 103 128 140 145 153 235 257 250 243
229 226 218 219 226 220 209 202 212 180 161 162 349 58 10 56 55 44 58 71 80 93 131 135 32 22 32 21 36 44 38 45 42 51 75 92 107 111 106 62 273 261 256
223 218 207 217 227 223 213 209 202 206 205 208 206 200 220 130 72 48 67 74 71 81 97 126 102 39 32 21 42 38 34 21 33 43 54 56 57 60 58 20 328 290 274
214 217 215 221 224 220 212 209 200 204 213 223 219 211 208 195 197 183 149 138 116 100 98 107 101 55 38 13 53 48 28 17 12 18 25 31 38 42 38 26 5 341 310
218 217 216 223 219 214 216 205 202 201 204 219 229 225 223 216 211 198 181 172 148 132 124 122 124 94 33 47 67 36 50 358 2 7 2 8 14 18 16 15 15 9 2
220 213 214 216 219 224 220 209 197 199 202 208 222 234 240 233 227 219 208 187 174 163 165 159 165 176 208 201 169 139 118 55 348 350 17 347 8 357 347 2 14 27 35
214 214 218 214 222 232 231 222 209 195 203 211 216 219 227 216 206 195 207 193 197 198 183 170 175 197 199 200 169 161 173 173 225 295 25 341 347 330 328 356 16 39 45
212 217 219 216 222 234 230 225 214 199 206 216 215 210 212 220 205 187 175 173 201 223 206 184 188 202 203 188 174 171 169 159 305 322 125 290 326 315 326 343 21 44 43
216 215 214 211 216 233 228 220 206 186 205 219 220 215 210 216 219 192 173 183 208 254 231 190 190 196 195 177 158 127 126 117 350 317 30 169 314 322 325 337 10 28 29
220 217 219 214 214 226 227 219 203 188 203 216 219 223 221 217 216 193 182 183 200 219 183 158 154 143 120 143 164 161 162 156 169 256 259 149 335 2 339 325 338 360 12
Height
1514 1513 1512 1511 1510 1509 1508 1508 1507 1507 1507 1507 1508 1508 1509 1510 1512 1513 1515 1516 1518 1519 1520 1521 1523 1524 1526 1528 1530 1531 1533 1535 1537 1539 1540 1542 1543 1545 1546 1548 1549 1550 1552
1513 1512 1511 1510 1508 1507 1507 1506 1505 1505 1505 1505 1506 1506 1507 1508 1510 1511 1513 1514 1516 1518 1519 1520 1522 1523 1525 1527 1528 1530 1532 1534 1536 1538 1540 1542 1543 1545 1547 1548 1550 1551 1553
1512 1511 1510 1508 1507 1506 1505 1504 1504 1503 1503 1504 1504 1505 1505 1506 1508 1509 1511 1513 1515 1516 1518 1519 1520 1522 1524 1525 1527 1529 1531 1533 1535 1537 1539 1541 1543 1545 1547 1548 1550 1552 1553
1511 1510 1508 1507 1506 1505 1504 1503 1502 1502 1502 1502 1503 1503 1504 1505 1506 1508 1509 1511 1513 1514 1516 1518 1519 1521 1522 1524 1526 1528 1530 1532 1534 1537 1539 1541 1543 1545 1547 1548 1550 1552 1554
1511 1509 1507 1506 1505 1503 1502 1501 1501 1501 1501 1501 1501 1502 1503 1503 1505 1506 1507 1509 1511 1513 1515 1517 1518 1520 1521 1523 1525 1527 1529 1531 1533 1535 1538 1540 1542 1544 1546 1548 1550 1552 1554
1510 1508 1507 1505 1504 1503 1502 1500 1500 1500 1500 1500 1500 1501 1502 1502 1503 1504 1506 1508 1509 1511 1513 1515 1517 1519 1520 1522 1524 1525 1528 1530 1532 1534 1536 1539 1541 1543 1545 1547 1550 1551 1553
1510 1508 1507 1505 1504 1502 1501 1500 1499 1499 1499 1499 1499 1500 1501 1502 1503 1504 1505 1506 1508 1510 1512 1514 1516 1517 1519 1521 1523 1524 1526 1528 1530 1533 1535 1537 1540 1542 1544 1547 1549 1551 1552
1510 1508 1507 1505 1504 1502 1501 1500 1499 1499 1499 1499 1499 1499 1500 1502 1502 1503 1504 1505 1507 1508 1511 1513 1514 1516 1518 1520 1522 1523 1525 1527 1529 1531 1533 1536 1538 1541 1543 1545 1547 1549 1551
1510 1508 1507 1505 1504 1502 1501 1500 1499 1499 1499 1499 1499 1500 1500 1500 1501 1502 1503 1504 1506 1507 1509 1511 1513 1515 1517 1519 1520 1522 1524 1526 1527 1529 1532 1535 1537 1540 1542 1544 1546 1548 1550
1510 1509 1507 1506 1504 1503 1501 1500 1499 1499 1498 1498 1499 1499 1500 1500 1500 1501 1503 1503 1505 1506 1508 1510 1512 1514 1516 1518 1519 1521 1523 1524 1526 1528 1531 1533 1535 1538 1540 1543 1545 1547 1549
1510 1509 1508 1506 1505 1503 1502 1501 1500 1499 1499 1498 1499 1499 1499 1500 1500 1501 1502 1503 1504 1505 1507 1509 1511 1512 1514 1516 1518 1520 1522 1523 1525 1527 1529 1532 1534 1536 1539 1541 1543 1545 1547
1510 1509 1508 1506 1505 1504 1503 1501 1500 1500 1499 1499 1499 1499 1500 1500 1500 1501 1501 1502 1503 1505 1507 1508 1510 1511 1513 1515 1517 1519 1520 1522 1524 1526 1528 1530 1532 1534 1536 1538 1541 1542 1544
1510 1509 1508 1507 1505 1504 1503 1502 1501 1500 1500 1499 1499 1500 1500 1500 1501 1501 1502 1502 1503 1505 1506 1508 1509 1511 1512 1514 1515 1517 1519 1521 1522 1524 1526 1528 1530 1532 1534 1536 1538 1540 1542
1509 1508 1508 1507 1506 1505 1504 1503 1502 1501 1500 1500 1500 1500 1500 1500 1501 1501 1502 1502 1503 1505 1506 1507 1509 1510 1512 1513 1514 1516 1517 1519 1520 1522 1524 1526 1528 1530 1531 1533 1535 1537 1539
1508 1508 1507 1507 1506 1505 1504 1503 1502 1502 1501 1501 1500 1500 1500 1500 1501 1501 1502 1503 1504 1504 1506 1507 1508 1510 1511 1512 1513 1515 1516 1517 1519 1520 1522 1524 1525 1527 1529 1530 1532 1534 1535
1508 1507 1507 1507 1506 1505 1505 1504 1503 1502 1502 1502 1501 1501 1501 1501 1501 1501 1501 1502 1503 1504 1505 1506 1507 1509 1510 1511 1512 1513 1515 1516 1517 1519 1520 1521 1523 1524 1526 1527 1529 1530 1532
1507 1506 1506 1506 1506 1505 1505 1504 1503 1503 1502 1502 1502 1502 1501 1501 1501 1501 1501 1502 1502 1504 1504 1506 1507 1508 1510 1510 1511 1512 1513 1514 1516 1517 1518 1519 1520 1522 1523 1524 1525 1527 1528
1505 1505 1505 1505 1505 1505 1504 1504 1504 1503 1503 1502 1502 1502 1502 1501 1501 1501 1501 1501 1502 1503 1504 1505 1506 1507 1508 1509 1510 1511 1512 1513 1514 1515 1516 1517 1518 1519 1520 1521 1522 1523 1524
1504 1504 1504 1504 1504 1504 1504 1503 1503 1503 1503 1503 1502 1502 1502 1502 1501 1501 1501 1501 1502 1503 1504 1504 1505 1506 1507 1508 1509 1510 1511 1512 1512 1513 1514 1515 1516 1517 1517 1518 1519 1520 1520
1501 1502 1502 1502 1502 1503 1503 1502 1502 1502 1502 1502 1502 1502 1502 1502 1502 1501 1501 1501 1502 1502 1503 1504 1505 1506 1507 1507 1508 1509 1509 1510 1511 1511 1512 1513 1513 1514 1515 1515 1516 1516 1517
1499 1499 1500 1500 1500 1501 1501 1501 1501 1501 1501 1501 1501 1501 1501 1501 1501 1501 1501 1501 1501 1502 1502 1503 1503 1504 1505 1506 1507 1507 1508 1509 1509 1510 1510 1510 1511 1511 1512 1512 1513 1513 1513
1496 1496 1497 1497 1498 1498 1499 1499 1499 1499 1499 1499 1500 1500 1500 1500 1500 1500 1500 1500 1501 1501 1501 1502 1503 1503 1504 1505 1505 1506 1507 1507 1508 1509 1508 1509 1509 1509 1509 1509 1510 1510 1510
1491 1492 1493 1494 1494 1495 1496 1496 1496 1496 1497 1497 1498 1498 1498 1499 1499 1499 1499 1499 1500 1500 1501 1501 1502 1502 1503 1503 1504 1504 1505 1505 1506 1506 1506 1507 1507 1507 1507 1507 1507 1507 1507
1486 1487 1488 1489 1490 1491 1492 1492 1493 1493 1493 1494 1494 1495 1496 1496 1497 1497 1497 1498 1498 1498 1499 1499 1500 1501 1502 1502 1502 1503 1503 1504 1504 1504 1505 1505 1505 1505 1505 1505 1504 1504 1504
1481 1482 1483 1484 1485 1486 1487 1488 1489 1489 1489 1490 1490 1491 1492 1493 1494 1494 1495 1495 1496 1496 1497 1498 1498 1499 1500 1500 1501 1501 1501 1502 1502 1503 1503 1503 1503 1503 1503 1503 1502 1502 1501
1475 1476 1477 1478 1479 1481 1482 1483 1484 1484 1484 1485 1486 1487 1488 1489 1490 1491 1491 1492 1493 1494 1495 1495 1496 1497 1497 1498 1498 1499 1499 1500 1500 1500 1500 1501 1500 1500 1500 1500 1500 1500 1499